Location: Vesunti
(61.5000°N, 22.8333°E)
Time: 01:27:54
(UTC+00:00)

Meteor 2-3 Rocket - Pass Details

Date: 17 February 2020
Orbit: 842 x 885 km, 81.3° (Epoch: 05 April)

Event Time Altitude Azimuth Distance (km) Brightness Sun altitude
Rises 03:11:13 0° 342° (NNW) 3,454 6.8 -21.5°
Reaches altitude 10° 03:13:39 10° 340° (NNW) 2,520 6.1 -21.2°
Maximum altitude 03:19:21 73° 258° (WSW) 915 3.6 -20.6°
Drops below altitude 10° 03:25:06 10° 174° (S) 2,532 6.1 -19.9°
Sets 03:27:32 0° 173° (S) 3,471 6.9 -19.6°
